Location: Agendoh
(31.0664°N, 8.9343°W)
Time: 08:53:22
(UTC+00:00)

Cosmos 1743 Rocket - Pass Details

Date: 06 December 2021
Orbit: 605 x 631 km, 82.6° (Epoch: 24 January)

Event Time Altitude Azimuth Distance (km) Brightness Sun altitude
Rises 06:29:21 0° 190° (S) 2,885 7.1 -10.9°
Reaches altitude 10° 06:31:35 10° 192° (SSW) 1,979 6.3 -10.4°
Maximum altitude 06:35:57 71° 276° (W) 654 3.5 -9.6°
Drops below altitude 10° 06:40:19 10° 1° (N) 1,974 5.9 -8.7°
Sets 06:42:33 0° 4° (N) 2,879 6.8 -8.2°
